sat.trackr.live / text

‹ back to catalog

LCS 1

NORAD 1361 · 1965-034C

PAYLOAD ACTIVE UNKNOWN

§ Identity

Operator
Country
US
Launch date
1965-05-06
Launch site
AFETR
Launch vehicle
Mass (kg)
RCS (m²)
0.81

Purposes: military

External: N2YO · Heavens-Above · Gunter

§ Orbital elements

Epoch: 2026-09-20T04:36:15.007104Z

Period
145.56 min
Inclination
32.1441°
Eccentricity
0.0011108
Mean motion
9.89310795 rev/d
Perigee alt
2,777.7 km
Apogee alt
2,798.0 km
Semi-major
9,166.0 km
B*
1.4448e-3
RAAN
311.4579°
Arg perigee
99.5534°
Mean anomaly
260.6219°
Rev number
21,929

§ Raw data

LCS 11 01361U 65034C   26263.19184036  .00000019  00000+0  14448-2 0  99922 01361  32.1441 311.4579 0011108  99.5534 260.6219  9.89310795219294

JSON: /api/v1/satellites/1361 · /tle

For live sub-satellite position, see the globe view (requires WebGL).

§ Visibility from observer

Set your observer location to see the next 7 days of passes ≥ 10°. The values pass through the URL so the page stays shareable.

No JS? Fill the form by hand. The geolocation button needs JavaScript.